This demonstration page uses our WeatherBlox Daily Observations layout. Learn more.

41.55636, -103.73856

Hourly Observations for October 7, 2016

Temp ( °F °C ) Dew Point ( °F °C ) Humidity (%) Winds ( mph kmh ) Pressure ( in mb ) Visibility ( mi km ) Precip ( " mm )
12:53 am 00:53 Clear 30 -1.1 27 -2.8 88 88 Calm 30.29 1026 10 16.0934 0 0
1:53 am 01:53 Clear 31 -0.6 28 -2.2 89 89 Calm 30.29 1026 10 16.0934 0 0
2:53 am 02:53 Clear 29 -1.7 26 -3.3 89 89 Calm 30.29 1026 10 16.0934 0 0
3:53 am 03:53 Clear 29 -1.7 25 -3.9 85 85 Calm 30.29 1026 10 16.0934 0 0
4:04 am 04:04 Partly Cloudy 28 -2 27 -3 93 93 Calm 30.39 1029 10 16.0934 0 0
4:15 am 04:15 Partly Cloudy with Mist and Fog 28 -2.2 25 -3.9 88 88 ENE 5 7 30.39 1029 1.5 2.41401 0 0
4:17 am 04:17 Mostly Cloudy with Mist and Fog 28 -2.2 25 -3.9 88 88 ENE 5 7 30.39 1029 0.75 1.207005 0 0
4:27 am 04:27 Mostly Cloudy with Freezing Fog 29 -1.7 26 -3.3 89 89 ENE 3 6 30.39 1029 0.25 0.402335 0 0
4:53 am 04:53 Mostly Cloudy with Freezing Fog 28 -2.2 26 -3.3 92 92 N 3 6 30.3 1026 0.25 0.402335 0 0
5:24 am 05:24 Mostly Cloudy with Mist and Fog 27 -3 25 -4 93 93 Calm 30.45 1031 0.75 1.207005 0 0
5:33 am 05:33 Mostly Cloudy with Mist and Fog 27 -2.8 25 -3.9 92 92 NW 3 6 30.42 1030 1.5 2.41401 0 0
5:37 am 05:37 Partly Cloudy with Mist and Fog 26 -3.3 24 -4.4 92 92 N 5 7 30.45 1031 3 4.82802 0 0
5:51 am 05:51 Mostly Cloudy with Mist and Fog 27 -3 25 -4 93 93 Calm 30.45 1031 2.5 4.02335 0 0
5:53 am 05:53 Mostly Cloudy with Mist and Fog 26 -3.3 24 -4.4 92 92 Calm 30.33 1027 1.75 2.816345 0 0
6:00 am 06:00 Partly Cloudy with Mist and Fog 27 -3 25 -4 93 93 Calm 30.45 1031 2 3.21868 0 0
6:02 am 06:02 Mostly Cloudy with Mist and Fog 27 -2.8 24 -4.4 89 89 Calm 30.42 1030 4 6.43736 0 0
6:24 am 06:24 Cloudy with Mist and Fog 28 -2 27 -3 93 93 Calm 30.42 1030 1.75 2.816345 0 0
6:34 am 06:34 Mostly Cloudy with Freezing Fog 28 -2 27 -3 93 93 Calm 30.42 1030 0.5 0.80467 0 0
6:42 am 06:42 Mostly Cloudy with Freezing Fog 28 -2 27 -3 93 93 Calm 30.45 1031 0.25 0.402335 0 0
6:53 am 06:53 Mostly Cloudy with Freezing Fog 28 -2.2 26 -3.3 92 92 NW 3 6 30.35 1028 5 8.0467 0 0
7:09 am 07:09 Mostly Cloudy with Freezing Fog 28 -2.2 26 -3.3 92 92 WNW 3 6 30.45 1031 5 8.0467 0 0
7:24 am 07:24 Cloudy with Mist and Fog 28 -2.2 25 -3.9 88 88 NW 5 7 30.45 1031 1.25 2.011675 0 0
7:26 am 07:26 Cloudy with Mist and Fog 27 -2.8 25 -3.9 92 92 WNW 5 7 30.48 1032 4 6.43736 0 0
7:45 am 07:45 Partly Cloudy 28 -2.2 25 -3.9 88 88 NW 8 13 30.45 1031 7 11.26538 0 0
7:53 am 07:53 Mostly Sunny 28 -2.2 26 -3.3 92 92 NW 7 11 30.36 1028 7 11.26538 0 0
8:53 am 08:53 Sunny 33 0.6 32 0 96 96 NW 6 9 30.37 1029 7 11.26538 0 0
9:53 am 09:53 Sunny 43 6.1 35 1.7 74 74 W 7 11 30.35 1028 10 16.0934 0 0
10:53 am 10:53 Sunny 50 10 34 1.1 54 54 W 7 11 30.33 1027 10 16.0934 0 0
11:53 am 11:53 Sunny 57 13.9 33 0.6 41 41 W 9 15 30.29 1026 10 16.0934 0 0
12:53 pm 12:53 Sunny 61 16.1 31 -0.6 32 32 W 9 15 30.25 1024 10 16.0934 0 0
1:53 pm 13:53 Sunny 65 18.3 27 -2.8 24 24 WNW 18 30 30.2 1023 10 16.0934 0 0
2:53 pm 14:53 Sunny 67 19.4 27 -2.8 22 22 W 8 13 30.17 1022 10 16.0934 0 0
3:53 pm 15:53 Sunny 67 19.4 25 -3.9 20 20 WNW 7 11 30.16 1021 10 16.0934 0 0
4:53 pm 16:53 Sunny 68 20 25 -3.9 20 20 N 7 11 30.14 1021 10 16.0934 0 0
5:53 pm 17:53 Sunny 63 17.2 28 -2.2 27 27 SE 12 19 30.16 1021 10 16.0934 0 0
6:53 pm 18:53 Clear 52 11.1 35 1.7 53 53 ESE 8 13 30.19 1023 10 16.0934 0 0
7:53 pm 19:53 Clear 46 7.8 34 1.1 63 63 SE 9 15 30.22 1023 10 16.0934 0 0
8:53 pm 20:53 Clear 44 6.7 33 0.6 65 65 E 6 9 30.21 1023 10 16.0934 0 0
9:53 pm 21:53 Clear 44 6.7 33 0.6 65 65 ESE 3 6 30.18 1022 10 16.0934 0 0
10:53 pm 22:53 Clear 40 4.4 30 -1.1 68 68 ESE 5 7 30.16 1021 10 16.0934 0 0
11:53 pm 23:53 Clear 39 3.9 30 -1.1 70 70 NE 7 11 30.15 1021 10 16.0934 0 0

Powered by AerisWeather